Regional Weather Roundup
Issued by NWS

Home | Current Version | Previous Version | Text Only | Print | Product List | Glossary On
Versions: 1 2 3 4 5 6 7 8 9 10 11 12 13 14 15 16 17 18 19 20 21 22 23 24 25 26 27 28 29 30 31 32 33 34 35 36 37 38 39 40 41 42 43 44 45 46 47 48 49 50
000
ASMX46 KSGX 210703
RWRMX

MEXICAN WEATHER ROUNDUP
NATIONAL WEATHER SERVICE SAN DIEGO CA
1200 AM PDT THU AUG 21 2014

BAJA CALIFORNIA

CITY           SKY/WX    TMP DP  RH WIND       PRES   REMARKS
ENSENADA NW      N/A     70  32  24 E3        29.91S
LA PAZ           N/A    N/A N/A N/A MISG        N/A
TIJUANA        CLEAR     66  59  77 N3        29.96S

NORTHWESTERN MEXICO

CITY           SKY/WX    TMP DP  RH WIND       PRES   REMARKS
CHIHUAHUA      CLOUDY    70  59  68 S14       30.15R

NORTHEASTERN MEXICO

CITY           SKY/WX    TMP DP  RH WIND       PRES   REMARKS
MONTERREY      CLEAR     82  68  61 SE14      29.95R
REYNOSA        CLEAR     81  72  74 S16       29.97F
VICTORIA       CLEAR     79  70  73 S12       30.02F

WESTERN MEXICO

CITY           SKY/WX    TMP DP  RH WIND       PRES   REMARKS
GUADALAJARA    MOCLDY    63  59  88 SE3       30.22S
MAZATLAN       MOCLDY    75  72  88 N8        29.90R
PTO. VALLARTA  CLOUDY    79  72  78 N5        29.90S
ZACATECAS      MOCLDY    55  50  82 CALM      30.35R

CENTRAL MEXICO

CITY           SKY/WX    TMP DP  RH WIND       PRES   REMARKS
LEON           LGT RAIN  57  57 100 CALM      30.36F
MEXICO CITY    PTCLDY    61  54  77 NW9       30.35F
MORELIA        MOCLDY    57  55  94 CALM      30.29F
QUERETARO      MOCLDY    59  57  94 CALM      30.36S
S. LUIS POTOSI PTCLDY    61  57  88 S6        30.31F
TOLUCA         CLOUDY    50  48  93 NE6       30.42F

SOUTHERN MEXICO

CITY           SKY/WX    TMP DP  RH WIND       PRES   REMARKS
ACAPULCO       LGT RAIN  77  75  94 NE5       29.92F
TAPACHULA      MOCLDY    77  73  88 CALM      29.94F

YUCATAN PENINSULA

CITY           SKY/WX    TMP DP  RH WIND       PRES   REMARKS
CAMPECHE       CLEAR     77  73  88 E12       29.99S
CANCUN         PTCLDY    81  72  74 N3        30.04F
COZUMEL        PTCLDY    75  75 100 CALM      30.02F
MERIDA         PTCLDY    77  72  83 E7        30.03F

$$




USA.gov is the U.S. government's official web portal to all federal, state and local government web resources and services.